Time,TemperatureF,DewpointF,PressureIn,WindDirection,WindDirectionDegrees,WindSpeedMPH,WindSpeedGustMPH,Humidity,HourlyPrecipIn,Conditions,Clouds,dailyrainin,SoftwareType,DateUTC
2013-01-14 00:06:00,42.9,41.0,30.07,NNW,338,9.0,-999.0,93,-99.99,,,0.00,weatherlink.com 1.10,2013-01-14 06:06:00,
2013-01-14 00:21:00,42.7,41.0,30.08,NNW,347,5.0,-999.0,94,-99.99,,,0.02,weatherlink.com 1.10,2013-01-14 06:21:00,
2013-01-14 00:36:00,42.5,41.0,30.07,NW,318,8.0,-999.0,94,-99.99,,,0.03,weatherlink.com 1.10,2013-01-14 06:36:00,
2013-01-14 00:51:00,42.4,41.0,30.08,NNW,332,4.0,-999.0,94,-99.99,,,0.04,weatherlink.com 1.10,2013-01-14 06:51:00,
2013-01-14 01:06:00,42.6,41.0,30.08,NW,323,8.0,-999.0,94,-99.99,,,0.05,weatherlink.com 1.10,2013-01-14 07:06:00,
2013-01-14 01:21:00,42.5,41.0,30.08,NNW,336,5.0,-999.0,94,-99.99,,,0.06,weatherlink.com 1.10,2013-01-14 07:21:00,
2013-01-14 01:36:00,42.9,42.0,30.09,NNW,346,10.0,-999.0,95,-99.99,,,0.06,weatherlink.com 1.10,2013-01-14 07:36:00,
2013-01-14 01:51:00,42.7,41.0,30.09,North,5,7.0,-999.0,94,-99.99,,,0.06,weatherlink.com 1.10,2013-01-14 07:51:00,
2013-01-14 02:06:00,42.6,41.0,30.09,NNW,333,10.0,-999.0,94,-99.99,,,0.07,weatherlink.com 1.10,2013-01-14 08:06:00,
2013-01-14 02:21:00,42.5,41.0,30.09,NW,319,7.0,-999.0,95,-99.99,,,0.07,weatherlink.com 1.10,2013-01-14 08:21:00,
2013-01-14 02:36:00,42.3,41.0,30.08,North,360,6.0,-999.0,94,-99.99,,,0.07,weatherlink.com 1.10,2013-01-14 08:36:00,
2013-01-14 02:51:00,42.1,41.0,30.08,NNW,347,7.0,-999.0,94,-99.99,,,0.07,weatherlink.com 1.10,2013-01-14 08:51:00,
2013-01-14 03:06:00,41.9,40.0,30.09,NNW,338,9.0,-999.0,93,-99.99,,,0.07,weatherlink.com 1.10,2013-01-14 09:06:00,
2013-01-14 03:21:00,42.0,40.0,30.09,NNW,346,8.0,-999.0,94,-99.99,,,0.07,weatherlink.com 1.10,2013-01-14 09:21:00,
2013-01-14 03:36:00,42.1,41.0,30.08,NW,322,6.0,-999.0,94,-99.99,,,0.07,weatherlink.com 1.10,2013-01-14 09:36:00,
2013-01-14 03:51:00,42.1,40.0,30.09,North,349,12.0,-999.0,92,-99.99,,,0.07,weatherlink.com 1.10,2013-01-14 09:51:00,
2013-01-14 04:06:00,42.0,40.0,30.09,NNE,12,8.0,-999.0,92,-99.99,,,0.07,weatherlink.com 1.10,2013-01-14 10:06:00,
2013-01-14 04:21:00,41.8,40.0,30.08,NNE,30,7.0,-999.0,92,-99.99,,,0.08,weatherlink.com 1.10,2013-01-14 10:21:00,
2013-01-14 04:36:00,41.7,40.0,30.08,NNW,344,9.0,-999.0,92,-99.99,,,0.08,weatherlink.com 1.10,2013-01-14 10:36:00,
2013-01-14 04:51:00,41.6,39.0,30.09,NNW,338,14.0,-999.0,91,-99.99,,,0.08,weatherlink.com 1.10,2013-01-14 10:51:00,
2013-01-14 05:06:00,41.4,39.0,30.09,North,360,7.0,-999.0,92,-99.99,,,0.08,weatherlink.com 1.10,2013-01-14 11:06:00,
2013-01-14 05:21:00,41.2,39.0,30.10,NE,55,8.0,-999.0,92,-99.99,,,0.09,weatherlink.com 1.10,2013-01-14 11:21:00,
2013-01-14 05:36:00,41.1,39.0,30.11,NNW,343,7.0,-999.0,93,-99.99,,,0.14,weatherlink.com 1.10,2013-01-14 11:36:00,
2013-01-14 05:51:00,40.9,39.0,30.11,NNW,327,6.0,-999.0,93,-99.99,,,0.16,weatherlink.com 1.10,2013-01-14 11:51:00,
2013-01-14 06:06:00,40.9,39.0,30.11,North,9,10.0,-999.0,94,-99.99,,,0.16,weatherlink.com 1.10,2013-01-14 12:06:00,
2013-01-14 06:21:00,40.9,39.0,30.13,NNW,342,7.0,-999.0,93,-99.99,,,0.16,weatherlink.com 1.10,2013-01-14 12:21:00,
2013-01-14 06:36:00,40.9,39.0,30.13,NNW,343,7.0,-999.0,93,-99.99,,,0.16,weatherlink.com 1.10,2013-01-14 12:36:00,
2013-01-14 06:51:00,41.0,39.0,30.14,NNW,338,10.0,-999.0,92,-99.99,,,0.16,weatherlink.com 1.10,2013-01-14 12:51:00,
2013-01-14 07:06:00,40.9,39.0,30.15,NNW,333,6.0,-999.0,92,-99.99,,,0.16,weatherlink.com 1.10,2013-01-14 13:06:00,
2013-01-14 07:21:00,40.7,39.0,30.15,NNE,26,7.0,-999.0,93,-99.99,,,0.16,weatherlink.com 1.10,2013-01-14 13:21:00,
2013-01-14 07:36:00,40.7,39.0,30.16,NNW,331,7.0,-999.0,93,-99.99,,,0.16,weatherlink.com 1.10,2013-01-14 13:36:00,
2013-01-14 07:51:00,40.6,39.0,30.16,NNE,20,8.0,-999.0,93,-99.99,,,0.17,weatherlink.com 1.10,2013-01-14 13:51:00,
2013-01-14 08:06:00,40.4,39.0,30.16,North,355,4.0,-999.0,94,-99.99,,,0.17,weatherlink.com 1.10,2013-01-14 14:06:00,
2013-01-14 08:21:00,40.7,39.0,30.17,NNW,344,10.0,-999.0,94,-99.99,,,0.18,weatherlink.com 1.10,2013-01-14 14:21:00,
2013-01-14 08:36:00,40.9,39.0,30.16,North,355,5.0,-999.0,94,-99.99,,,0.18,weatherlink.com 1.10,2013-01-14 14:36:00,
2013-01-14 08:51:00,41.1,40.0,30.16,North,5,11.0,-999.0,94,-99.99,,,0.18,weatherlink.com 1.10,2013-01-14 14:51:00,
2013-01-14 09:06:00,41.3,40.0,30.14,NNW,348,6.0,-999.0,94,-99.99,,,0.18,weatherlink.com 1.10,2013-01-14 15:06:00,
2013-01-14 09:21:00,41.4,40.0,30.16,North,355,10.0,-999.0,94,-99.99,,,0.18,weatherlink.com 1.10,2013-01-14 15:21:00,
2013-01-14 09:36:00,40.9,39.0,30.15,NNE,26,5.0,-999.0,94,-99.99,,,0.20,weatherlink.com 1.10,2013-01-14 15:36:00,
2013-01-14 09:51:00,40.6,39.0,30.15,NNE,33,7.0,-999.0,94,-99.99,,,0.22,weatherlink.com 1.10,2013-01-14 15:51:00,
2013-01-14 10:06:00,41.0,40.0,30.16,North,349,5.0,-999.0,95,-99.99,,,0.26,weatherlink.com 1.10,2013-01-14 16:06:00,
2013-01-14 10:21:00,40.6,39.0,30.15,NNW,336,4.0,-999.0,95,-99.99,,,0.30,weatherlink.com 1.10,2013-01-14 16:21:00,
2013-01-14 10:36:00,40.9,40.0,30.15,North,355,9.0,-999.0,95,-99.99,,,0.32,weatherlink.com 1.10,2013-01-14 16:36:00,
2013-01-14 10:51:00,41.0,40.0,30.14,NNW,342,9.0,-999.0,95,-99.99,,,0.34,weatherlink.com 1.10,2013-01-14 16:51:00,
2013-01-14 11:06:00,41.0,40.0,30.13,NNW,345,9.0,-999.0,95,-99.99,,,0.35,weatherlink.com 1.10,2013-01-14 17:06:00,
2013-01-14 11:21:00,40.7,39.0,30.11,North,9,2.0,-999.0,95,-99.99,,,0.36,weatherlink.com 1.10,2013-01-14 17:21:00,
2013-01-14 11:36:00,40.8,40.0,30.11,NNW,347,8.0,-999.0,95,-99.99,,,0.36,weatherlink.com 1.10,2013-01-14 17:36:00,
2013-01-14 11:51:00,40.9,40.0,30.10,NNE,28,2.0,-999.0,95,-99.99,,,0.37,weatherlink.com 1.10,2013-01-14 17:51:00,
2013-01-14 12:06:00,41.1,40.0,30.08,North,355,5.0,-999.0,95,-99.99,,,0.38,weatherlink.com 1.10,2013-01-14 18:06:00,
2013-01-14 12:21:00,41.5,40.0,30.10,NNW,345,0.0,-999.0,95,-99.99,,,0.41,weatherlink.com 1.10,2013-01-14 18:21:00,
2013-01-14 12:36:00,41.4,40.0,30.08,North,360,4.0,-999.0,95,-99.99,,,0.44,weatherlink.com 1.10,2013-01-14 18:36:00,
2013-01-14 12:51:00,41.3,40.0,30.09,NNW,348,7.0,-999.0,96,-99.99,,,0.49,weatherlink.com 1.10,2013-01-14 18:51:00,
2013-01-14 13:06:00,40.7,39.0,30.09,NNW,340,6.0,-999.0,95,-99.99,,,0.52,weatherlink.com 1.10,2013-01-14 19:06:00,
2013-01-14 13:21:00,40.6,39.0,30.08,NNW,343,5.0,-999.0,95,-99.99,,,0.54,weatherlink.com 1.10,2013-01-14 19:21:00,
2013-01-14 13:36:00,40.3,39.0,30.09,NNW,336,6.0,-999.0,95,-99.99,,,0.58,weatherlink.com 1.10,2013-01-14 19:36:00,
2013-01-14 13:51:00,40.2,39.0,30.09,NNW,348,5.0,-999.0,95,-99.99,,,0.63,weatherlink.com 1.10,2013-01-14 19:51:00,
2013-01-14 14:21:00,39.3,38.0,30.14,WNW,290,6.0,-999.0,94,-99.99,,,0.73,weatherlink.com 1.10,2013-01-14 20:21:00,
2013-01-14 14:36:00,38.5,37.0,30.15,NW,319,11.0,-999.0,93,-99.99,,,0.77,weatherlink.com 1.10,2013-01-14 20:36:00,
2013-01-14 14:51:00,37.7,36.0,30.16,NW,324,12.0,-999.0,93,-99.99,,,0.80,weatherlink.com 1.10,2013-01-14 20:51:00,
2013-01-14 15:06:00,36.8,35.0,30.16,NNW,339,14.0,-999.0,93,-99.99,,,0.84,weatherlink.com 1.10,2013-01-14 21:06:00,
2013-01-14 15:21:00,36.5,35.0,30.17,NNW,336,10.0,-999.0,93,-99.99,,,0.85,weatherlink.com 1.10,2013-01-14 21:21:00,
2013-01-14 15:36:00,36.2,35.0,30.18,NNW,336,15.0,-999.0,94,-99.99,,,0.87,weatherlink.com 1.10,2013-01-14 21:36:00,
2013-01-14 15:51:00,36.1,35.0,30.20,North,5,4.0,-999.0,94,-99.99,,,0.90,weatherlink.com 1.10,2013-01-14 21:51:00,
2013-01-14 16:06:00,35.6,34.0,30.20,NNW,344,7.0,-999.0,94,-99.99,,,0.94,weatherlink.com 1.10,2013-01-14 22:06:00,
2013-01-14 16:21:00,35.5,34.0,30.21,NW,324,13.0,-999.0,94,-99.99,,,0.95,weatherlink.com 1.10,2013-01-14 22:21:00,
2013-01-14 16:36:00,35.3,34.0,30.22,NNW,336,14.0,-999.0,94,-99.99,,,1.00,weatherlink.com 1.10,2013-01-14 22:36:00,
2013-01-14 16:51:00,35.3,34.0,30.22,North,355,5.0,-999.0,94,-99.99,,,1.05,weatherlink.com 1.10,2013-01-14 22:51:00,
2013-01-14 17:06:00,35.4,34.0,30.21,North,350,10.0,-999.0,94,-99.99,,,1.09,weatherlink.com 1.10,2013-01-14 23:06:00,
2013-01-14 17:21:00,35.6,34.0,30.23,NW,324,12.0,-999.0,94,-99.99,,,1.11,weatherlink.com 1.10,2013-01-14 23:21:00,
2013-01-14 17:36:00,35.3,34.0,30.21,North,5,1.0,-999.0,94,-99.99,,,1.12,weatherlink.com 1.10,2013-01-14 23:36:00,
2013-01-14 17:51:00,35.7,34.0,30.20,North,5,6.0,-999.0,94,-99.99,,,1.12,weatherlink.com 1.10,2013-01-14 23:51:00,
2013-01-14 18:06:00,36.0,35.0,30.24,NNW,330,8.0,-999.0,94,-99.99,,,1.12,weatherlink.com 1.10,2013-01-15 00:06:00,
2013-01-14 18:21:00,36.1,35.0,30.21,North,360,7.0,-999.0,95,-99.99,,,1.17,weatherlink.com 1.10,2013-01-15 00:21:00,
2013-01-14 18:36:00,36.3,35.0,30.20,NE,42,8.0,-999.0,95,-99.99,,,1.20,weatherlink.com 1.10,2013-01-15 00:36:00,
2013-01-14 18:51:00,36.1,35.0,30.21,North,355,10.0,-999.0,94,-99.99,,,1.24,weatherlink.com 1.10,2013-01-15 00:51:00,
2013-01-14 19:06:00,36.1,35.0,30.20,North,360,9.0,-999.0,95,-99.99,,,1.29,weatherlink.com 1.10,2013-01-15 01:06:00,
2013-01-14 19:23:00,36.4,35.0,30.20,NNE,29,5.0,-999.0,95,-99.99,,,1.33,weatherlink.com 1.10,2013-01-15 01:23:00,
2013-01-14 19:36:00,36.6,35.0,30.21,NNW,333,7.0,-999.0,95,-99.99,,,1.36,weatherlink.com 1.10,2013-01-15 01:36:00,
2013-01-14 19:51:00,36.6,35.0,30.20,NNE,23,5.0,-999.0,95,-99.99,,,1.38,weatherlink.com 1.10,2013-01-15 01:51:00,
2013-01-14 20:06:00,36.6,35.0,30.19,NE,50,9.0,-999.0,95,-99.99,,,1.40,weatherlink.com 1.10,2013-01-15 02:06:00,
2013-01-14 20:21:00,36.6,35.0,30.18,North,355,7.0,-999.0,95,-99.99,,,1.42,weatherlink.com 1.10,2013-01-15 02:21:00,
2013-01-14 20:36:00,36.9,36.0,30.19,NNE,18,5.0,-999.0,95,-99.99,,,1.43,weatherlink.com 1.10,2013-01-15 02:36:00,
2013-01-14 20:51:00,37.3,36.0,30.18,NNE,22,5.0,-999.0,95,-99.99,,,1.44,weatherlink.com 1.10,2013-01-15 02:51:00,
2013-01-14 21:06:00,37.4,36.0,30.16,NNE,13,4.0,-999.0,95,-99.99,,,1.45,weatherlink.com 1.10,2013-01-15 03:06:00,
2013-01-14 21:21:00,37.5,36.0,30.16,NE,47,2.0,-999.0,95,-99.99,,,1.46,weatherlink.com 1.10,2013-01-15 03:21:00,
2013-01-14 21:36:00,37.6,36.0,30.14,NE,42,2.0,-999.0,95,-99.99,,,1.46,weatherlink.com 1.10,2013-01-15 03:36:00,
2013-01-14 21:51:00,37.8,37.0,30.14,North,5,2.0,-999.0,95,-99.99,,,1.46,weatherlink.com 1.10,2013-01-15 03:51:00,
2013-01-14 22:06:00,38.1,37.0,30.14,NE,42,7.0,-999.0,94,-99.99,,,1.46,weatherlink.com 1.10,2013-01-15 04:06:00,
2013-01-14 22:21:00,38.3,37.0,30.14,NNW,341,5.0,-999.0,94,-99.99,,,1.46,weatherlink.com 1.10,2013-01-15 04:21:00,
2013-01-14 22:36:00,38.3,37.0,30.13,ENE,74,0.0,-999.0,95,-99.99,,,1.46,weatherlink.com 1.10,2013-01-15 04:36:00,
2013-01-14 22:51:00,38.5,37.0,30.11,NNE,15,0.0,-999.0,94,-99.99,,,1.47,weatherlink.com 1.10,2013-01-15 04:51:00,
2013-01-14 23:06:00,38.6,37.0,30.11,NNE,15,0.0,-999.0,95,-99.99,,,1.47,weatherlink.com 1.10,2013-01-15 05:06:00,
2013-01-14 23:21:00,39.0,38.0,30.11,NE,49,4.0,-999.0,95,-99.99,,,1.47,weatherlink.com 1.10,2013-01-15 05:21:00,
2013-01-14 23:36:00,39.0,38.0,30.11,North,10,5.0,-999.0,95,-99.99,,,1.47,weatherlink.com 1.10,2013-01-15 05:36:00,
2013-01-14 23:51:00,39.4,38.0,30.11,North,5,2.0,-999.0,95,-99.99,,,1.48,weatherlink.com 1.10,2013-01-15 05:51:00,